Regional Weather Roundup
Issued by NWS

Home | Current Version | Previous Version | Text Only | Print | Product List | Glossary Off
Versions: 1 2 3 4 5 6 7 8 9 10 11 12 13 14 15 16 17 18 19 20 21 22 23 24 25 26 27 28 29 30 31 32 33 34 35 36 37 38 39 40 41 42 43 44 45 46 47 48 49 50

241
ASUS45 KCYS 170110
RWRWY

WYOMING REGIONAL WEATHER ROUNDUP
NATIONAL WEATHER SERVICE CHEYENNE WY
600 PM MST SAT DEC 16 2017

NOTE:  "FAIR" INDICATES FEW OR NO CLOUDS BELOW 12,000 FEET
WITH NO SIGNIFICANT WEATHER AND/OR OBSTRUCTIONS TO VISIBILITY.

WYZ001-170200-
YELLOWSTONE NATIONAL PARK

CITY           SKY/WX    TMP DP  RH WIND       PRES   REMARKS
LK YELLOWSTONE   N/A     19  14  81 VRB3      29.90R
W YELLOWSTONE  NOT AVBL

$$
WYZ002>013-054>058-071-098>099-170200-
NORTHERN WYOMING

CITY           SKY/WX    TMP DP  RH WIND       PRES   REMARKS
JACKSON        NOT AVBL
CODY           FLURRIES  26  21  81 N13       29.96R WCI  15
GREYBULL       LGT SNOW  29  28  96 NW13      29.94R FOG     WCI  19
WORLAND        LGT SNOW  30  29  96 N10       29.93R FOG     WCI  21
SHERIDAN       LGT SNOW  29  28  96 CALM      30.02R FOG
BUFFALO        LGT SNOW  27  21  78 W6        29.99R WCI  20
GILLETTE       LGT SNOW  28  26  92 NE6       29.99R VSB 1   WCI  22
HULETT         LGT SNOW  30  27  86 NE5       30.00S WCI  25
NEWCASTLE      LGT SNOW  32  30  93 E6        29.98R WCI  26

$$
WYZ014>020-022>026-101>103-170200-
CENTRAL WYOMING

CITY           SKY/WX    TMP DP  RH WIND       PRES   REMARKS
BIG PINEY      CLOUDY    26  24  92 N5        29.83S WCI  20
PINEDALE       LGT SNOW  27  25  93 NW9       29.84R WCI  17
DUBOIS         LGT SNOW  25  23  93 CALM      29.84R
LANDER         LGT SNOW  29  28  96 NW8       29.86R FOG     WCI  21
RIVERTON       LGT SNOW  28  27  96 E14       29.87S FOG     WCI  17
CASPER         LGT SNOW  27  24  89 NE10      29.90S FOG     WCI  17
DOUGLAS        CLOUDY    31  27  85 E12       29.93R WCI  22

$$
WYZ021-027>030-104>119-170200-
SOUTHERN WYOMING

CITY           SKY/WX    TMP DP  RH WIND       PRES   REMARKS
EVANSTON       LGT SNOW  24  24 100 N12       29.86R FOG     WCI  13
FORT BRIDGER   FLURRIES  29  27  92 W10       29.87R WCI  20
ROCK SPRINGS   MOCLDY    30  24  78 N5        29.82R WCI  25
DIXON          FAIR      26  19  74 NE5       29.82R WCI  20
RAWLINS        FAIR      30  24  78 NE8       29.81S WCI  22
SARATOGA       FAIR      23  18  80 SE10      29.81R WCI  12
LARAMIE        MOCLDY    28  19  69 E14       29.80S WCI  17
CHEYENNE       FAIR      31  24  75 NE10      29.87R WCI  22
TORRINGTON     CLOUDY    34  28  79 E9        29.95R WCI  27
PINE BLUFFS    FAIR      32  27  80 NE9       29.90R WCI  24

$$




USA.gov is the U.S. government's official web portal to all federal, state and local government web resources and services.